Location: Albany
(35.0170°S, 117.8920°E)
Time: 02:28:07
(UTC+08:00)

Envisat - Pass Details

Date: 01 December 2020
Orbit: 764 x 766 km, 98.1° (Epoch: 16 January)

Event Time Altitude Azimuth Distance (km) Brightness Sun altitude
Rises 03:42:55 0° 69° (ENE) 3,233 6.7 -12.0°
Reaches altitude 10° 03:47:22 10° 106° (ESE) 2,319 6.7 -11.3°
Maximum altitude 03:48:24 11° 118° (ESE) 2,280 6.9 -11.1°
Drops below altitude 10° 03:49:27 10° 130° (SE) 2,325 7.1 -10.9°
Sets 03:53:55 0° 166° (SSE) 3,264 7.1 -10.2°
